Flag for Germany Weather past 2 weeks in Würzburg, Bavaria, Germany

Now
58 °F

Passing clouds.


Feels Like: 58 °F
Forecast: 55 / 74 °F
Wind: 1 mph from West

Location: Wuerzburg

Current Time: Sep 17, 2014 at 1:51:46 AM

Latest Report: Sep 17, 2014 at 1:00 AM


Visibility: 6 mi

Pressure: 29.98 "Hg

Humidity: 97%

Dew point: 57 °F

Location of WürzburgLocation

Historic Weather in Würzburg — Graph

°F

Würzburg temperature yesterday

Maximum temperature yesterday: 71 °F (at 3:00 PM)
Minimum temperature yesterday: 55 °F (at 7:00 AM)
Average temperature yesterday: 62 °F

Past Weeks' High & Low Weather Summary

 TemperatureHumidityPressure
High75 °F (Sep 6, 4:00 PM)100% (Sep 6, 9:00 AM)30.19 "Hg (Sep 6, 9:00 AM)
Low48 °F (Sep 11, 6:00 AM)52% (Sep 8, 5:00 PM)29.86 "Hg (Sep 6, 4:00 PM)
Average61 °F85%30.04 "Hg
* Reported Midnight between Sep 1 and Sep 2 — Midnight between Sep 16 and Sep 17, Würzburg, Weather by CustomWeather, © 2014

Note: Actual official high and low records may vary slightly from our data, if they occured in-between our weather recording intervals... More about our weather records

Advertising

Würzburg weather history for previous 24 hours

 ConditionsComfort  
Time TempWeatherWind HumidityBarometerVisibility
12:00 AM
Sep 17
59 °FPassing clouds.1 mph95%29.98 "Hg11 mi
11:00 PM
Sep 16
59 °FPassing clouds.1 mph94%29.98 "Hg16 mi
10:00 PM60 °FClear.1 mph92%29.99 "Hg17 mi
9:00 PM63 °FClear.1 mph84%29.98 "Hg19 mi
8:00 PM65 °FPassing clouds.2 mph75%29.97 "Hg19 mi
7:00 PM68 °FPassing clouds.2 mph69%29.96 "Hg19 mi
6:00 PM70 °FPassing clouds.3 mph67%29.96 "Hg22 mi
5:00 PM70 °FPassing clouds.3 mph66%29.96 "Hg25 mi
4:00 PM71 °FPassing clouds.5 mph63%29.97 "Hg25 mi
3:00 PM71 °FPassing clouds.5 mph67%29.98 "Hg25 mi
2:00 PM69 °FPartly sunny.6 mph67%29.99 "Hg25 mi
1:00 PM68 °FScattered clouds.5 mph71%30.00 "Hg16 mi
12:00 PM69 °FScattered clouds.5 mph76%30.01 "Hg14 mi
11:00 AM66 °FScattered clouds.2 mph79%30.02 "Hg11 mi
10:00 AM62 °FPassing clouds.2 mph87%30.03 "Hg9 mi
9:00 AM59 °FPassing clouds.1 mph95%30.02 "Hg6 mi
8:00 AM55 °FFog.1 mph99%30.03 "Hg4 mi
7:00 AM55 °FFog.No wind98%30.02 "Hg4 mi
6:00 AM55 °FFog.No wind99%30.02 "Hg4 mi
5:00 AM56 °FFog.1 mph99%30.02 "Hg4 mi
4:00 AM56 °FPassing clouds.1 mph98%30.02 "Hg5 mi
3:00 AM57 °FPassing clouds.No wind98%30.01 "Hg6 mi
2:00 AM56 °FPassing clouds.1 mph98%30.01 "Hg7 mi
1:00 AM57 °FPassing clouds.1 mph97%30.02 "Hg7 mi
Weather by CustomWeather, © 2014

See weather overviewHow to use our weather pages